Weather History for KSKA - April, 2013

Change the Weather History Date:

Saturday, April 27, 2013

  Actual Average Record
Temperature  
Mean Temperature 56 °F -  
Max Temperature 65 °F 58 °F - (-1)
Min Temperature 47 °F 36 °F - (-1)
Degree Days  
Heating Degree Days 10    
Growing Degree Days 6 (Base 50)    
Moisture  
Dew Point 34 °F    
Average Humidity 47    
Maximum Humidity 66    
Minimum Humidity 28    
Precipitation  
Precipitation 0.00 in - - ()
Sea Level Pressure  
Sea Level Pressure 30.04 in    
Wind  
Wind Speed 15 mph (South)    
Max Wind Speed 28 mph    
Max Gust Speed 37 mph    
Visibility 10 miles    
Events      
Averages and records for this station are not official NWS values.
T = Trace of Precipitation, MM = Missing Value Source: NWS Daily Summary

Daily Weather History Graph

Daily Weather History Graph

Search for Another Location

Airport or City:

Trip Planner

Search our weather history database for the weather conditions in past years. The results will help you decide how hot, cold, wet, or windy it might be!

Date:

Astronomy

Apr. 27, 2013 Rise Set
Actual Time 5:39 AM PDT 7:57 PM PDT
Civil Twilight 5:05 AM PDT 8:31 PM PDT
Nautical Twilight 4:23 AM PDT 9:14 PM PDT
Astronomical Twilight 3:35 AM PDT 10:02 PM PDT
Moon 10:40 PM PDT (4/27) 6:55 AM PDT (4/27)
Length of Visible Light 15h 26m
Length of Day
14h 18m
Waning Gibbous, 95% of the Moon is Illuminated
Apr 27
Waning Gibbous
May 2
Last Quarter
May 9
New
May 17
First Quarter
May 24
Full

Hourly Weather History & Observations

Time (PDT) Temp. Dew Point Humidity Pressure Visibility Wind Dir Wind Speed Gust Speed Precip Events Conditions
12:58 AM 54.7 °F 30.9 °F 40% 30.09 in 10.0 mi SSW 10.4 mph - N/A   Clear
1:58 AM 52.5 °F 30.7 °F 43% 30.09 in 10.0 mi South 10.4 mph - N/A   Partly Cloudy
2:58 AM 50.4 °F 30.9 °F 47% 30.09 in 10.0 mi SSW 10.4 mph - N/A   Clear
3:58 AM 48.2 °F 32.2 °F 54% 30.09 in 10.0 mi South 12.7 mph - N/A   Scattered Clouds
4:58 AM 48.0 °F 31.1 °F 52% 30.09 in 10.0 mi South 13.8 mph - N/A   Clear
5:58 AM 47.8 °F 30.0 °F 50% 30.07 in 10.0 mi SSE 10.4 mph - N/A   Clear
6:58 AM 48.0 °F 31.5 °F 53% 30.08 in 10.0 mi South 12.7 mph - N/A   Partly Cloudy
7:58 AM 50.4 °F 34.2 °F 54% 30.09 in 10.0 mi South 16.1 mph 23.0 mph N/A   Mostly Cloudy
8:58 AM 52.7 °F 35.4 °F 52% 30.08 in 10.0 mi South 17.3 mph - N/A   Mostly Cloudy
9:58 AM 55.8 °F 34.5 °F 45% 30.06 in 10.0 mi South 18.4 mph 25.3 mph N/A   Mostly Cloudy
10:58 AM 57.7 °F 34.7 °F 42% 30.05 in 10.0 mi South 24.2 mph 29.9 mph N/A   Overcast
11:58 AM 58.8 °F 32.2 °F 37% 30.04 in 10.0 mi South 19.6 mph 26.5 mph N/A   Overcast
12:58 PM 58.1 °F 32.2 °F 38% 30.03 in 10.0 mi South 20.7 mph 28.8 mph N/A   Overcast
1:58 PM 60.8 °F 34.7 °F 38% 30.01 in 10.0 mi South 23.0 mph 29.9 mph N/A   Overcast
2:58 PM 60.1 °F 34.0 °F 38% 30.00 in 10.0 mi South 25.3 mph 33.4 mph N/A   Mostly Cloudy
3:58 PM 64.6 °F 35.2 °F 34% 29.97 in 10.0 mi South 25.3 mph 33.4 mph N/A   Clear
4:58 PM 64.6 °F 30.6 °F 28% 29.96 in 10.0 mi SSW 27.6 mph 36.8 mph N/A   Partly Cloudy
5:58 PM 61.0 °F 32.7 °F 35% 29.98 in 10.0 mi SSW 23.0 mph 29.9 mph N/A   Scattered Clouds
6:58 PM 58.1 °F 34.7 °F 41% 29.98 in 10.0 mi SSW 16.1 mph 24.2 mph N/A   Scattered Clouds
7:58 PM 55.2 °F 36.1 °F 49% 29.99 in 10.0 mi SSW 20.7 mph - N/A   Mostly Cloudy
8:58 PM 52.5 °F 37.0 °F 56% 30.00 in 10.0 mi SSW 13.8 mph 25.3 mph N/A   Partly Cloudy
9:58 PM 50.7 °F 37.4 °F 60% 30.02 in 10.0 mi SSW 16.1 mph - N/A   Clear
10:58 PM 49.3 °F 37.6 °F 64% 30.02 in 10.0 mi SSW 12.7 mph - N/A   Clear
11:58 PM 48.4 °F 37.4 °F 66% 30.02 in 10.0 mi SSW 13.8 mph - N/A   Clear